Time,TemperatureF,DewpointF,PressureIn,WindDirection,WindDirectionDegrees,WindSpeedMPH,WindSpeedGustMPH,Humidity,HourlyPrecipIn,Conditions,Clouds,dailyrainin,SoftwareType,DateUTC
2013-06-15 00:00:00,61.6,53.2,30.04,WNW,298,6.0,7.0,74,0.00,,CLR,-99.99,VWS V12.06,2013-06-15 04:00:00,
2013-06-15 00:02:00,56.9,51.5,30.02,NW,307,0.0,3.0,82,0.00,,CLR,-99.99,VWS V12.06,2013-06-15 04:02:00,
2013-06-15 00:30:00,61.3,53.3,30.05,NW,325,1.0,7.0,75,0.00,,CLR,-99.99,VWS V12.06,2013-06-15 04:30:00,
2013-06-15 00:32:00,56.9,51.5,30.03,SSW,198,6.0,6.0,82,0.00,,CLR,-99.99,VWS V12.06,2013-06-15 04:32:00,
2013-06-15 01:00:00,61.3,53.7,30.05,North,9,5.0,7.0,76,0.00,,CLR,-99.99,VWS V12.06,2013-06-15 05:00:00,
2013-06-15 01:02:00,61.3,54.0,30.02,NW,319,4.0,11.0,77,0.00,,CLR,-99.99,VWS V12.06,2013-06-15 05:02:00,
2013-06-15 01:30:00,61.2,53.6,30.05,NNW,343,3.0,10.0,76,0.00,,CLR,-99.99,VWS V12.06,2013-06-15 05:30:00,
2013-06-15 02:00:00,61.1,53.5,30.05,NNW,338,7.0,11.0,76,0.00,,CLR,-99.99,VWS V12.06,2013-06-15 06:00:00,
2013-06-15 02:30:00,60.9,53.7,30.05,NNW,329,6.0,6.0,77,0.00,,CLR,-99.99,VWS V12.06,2013-06-15 06:30:00,
2013-06-15 03:00:00,60.5,53.3,30.04,NNE,13,8.0,8.0,77,0.00,,CLR,-99.99,VWS V12.06,2013-06-15 07:00:00,
2013-06-15 03:30:00,60.4,53.2,30.04,NNE,14,6.0,8.0,77,0.00,,CLR,-99.99,VWS V12.06,2013-06-15 07:30:00,
2013-06-15 04:00:00,59.9,52.7,30.03,NNE,19,5.0,5.0,77,0.00,,CLR,-99.99,VWS V12.06,2013-06-15 08:00:00,
2013-06-15 04:30:00,59.5,53.0,30.04,NNE,30,0.0,0.0,79,0.00,,CLR,-99.99,VWS V12.06,2013-06-15 08:30:00,
2013-06-15 05:00:00,59.2,52.7,30.06,North,5,0.0,0.0,79,0.00,,CLR,-99.99,VWS V12.06,2013-06-15 09:00:00,
2013-06-15 05:30:00,58.6,52.5,30.07,NNE,16,0.0,0.0,80,0.00,,CLR,-99.99,VWS V12.06,2013-06-15 09:30:00,
2013-06-15 06:00:00,59.4,52.9,30.08,NNW,344,0.0,0.0,79,0.00,,CLR,-99.99,VWS V12.06,2013-06-15 10:00:00,
2013-06-15 06:30:00,59.8,51.1,30.09,North,5,0.0,0.0,73,0.00,,CLR,-99.99,VWS V12.06,2013-06-15 10:30:00,
2013-06-15 07:00:00,60.2,51.5,30.09,WNW,288,0.0,0.0,73,0.00,,CLR,-99.99,VWS V12.06,2013-06-15 11:00:00,
2013-06-15 07:30:00,60.8,52.1,30.10,WSW,240,0.0,0.0,73,0.00,,CLR,-99.99,VWS V12.06,2013-06-15 11:30:00,
2013-06-15 08:00:00,60.9,52.9,30.10,SW,235,0.0,1.0,75,0.00,,CLR,-99.99,VWS V12.06,2013-06-15 12:00:00,
2013-06-15 08:30:00,64.5,53.7,30.11,SW,235,0.0,1.0,68,0.00,,CLR,-99.99,VWS V12.06,2013-06-15 12:30:00,
2013-06-15 09:00:00,66.6,55.3,30.12,SSW,211,0.0,0.0,67,0.00,,CLR,-99.99,VWS V12.06,2013-06-15 13:00:00,
2013-06-15 09:30:00,66.2,55.7,30.13,SSE,154,0.0,1.0,69,0.00,,CLR,-99.99,VWS V12.06,2013-06-15 13:30:00,
2013-06-15 10:00:00,67.0,57.3,30.12,SSW,212,3.0,3.0,71,0.00,,CLR,-99.99,VWS V12.06,2013-06-15 14:00:00,
2013-06-15 10:30:00,68.7,56.9,30.11,SSE,166,0.0,0.0,66,0.00,,CLR,-99.99,VWS V12.06,2013-06-15 14:30:00,
2013-06-15 11:00:00,69.3,57.9,30.11,SSW,195,1.0,3.0,67,0.00,,CLR,-99.99,VWS V12.06,2013-06-15 15:00:00,
2013-06-15 11:30:00,70.8,58.5,30.10,WSW,257,1.0,3.0,65,0.00,,CLR,-99.99,VWS V12.06,2013-06-15 15:30:00,
2013-06-15 12:00:00,72.1,60.5,30.10,SW,225,5.0,5.0,67,0.00,,CLR,-99.99,VWS V12.06,2013-06-15 16:00:00,
2013-06-15 12:30:00,71.0,59.5,30.10,SSW,199,3.0,3.0,67,0.00,,CLR,-99.99,VWS V12.06,2013-06-15 16:30:00,
2013-06-15 13:00:00,72.0,60.0,30.09,ESE,102,2.0,2.0,66,0.00,,BKN045,-99.99,VWS V12.06,2013-06-15 17:00:00,
2013-06-15 13:30:00,72.0,60.5,30.09,East,87,0.0,2.0,67,0.00,,BKN045,-99.99,VWS V12.06,2013-06-15 17:30:00,
2013-06-15 14:00:00,70.9,61.0,30.08,South,178,2.0,2.0,71,0.00,,SCT045,-99.99,VWS V12.06,2013-06-15 18:00:00,
2013-06-15 14:30:00,71.1,61.2,30.08,South,191,3.0,3.0,71,0.00,,SCT045,-99.99,VWS V12.06,2013-06-15 18:30:00,
2013-06-15 15:00:00,72.7,61.5,30.07,SSW,204,2.0,2.0,68,0.00,,BKN049,-99.99,VWS V12.06,2013-06-15 19:00:00,
2013-06-15 15:30:00,72.4,61.2,30.07,SSW,200,0.0,0.0,68,0.00,,BKN049,-99.99,VWS V12.06,2013-06-15 19:30:00,
2013-06-15 16:00:00,74.1,62.9,30.07,South,169,0.0,3.0,68,0.00,,SCT050,-99.99,VWS V12.06,2013-06-15 20:00:00,
2013-06-15 16:30:00,75.6,60.8,30.06,WSW,238,3.0,3.0,60,0.00,,SCT050,-99.99,VWS V12.06,2013-06-15 20:30:00,
2013-06-15 17:00:00,77.2,57.1,30.06,SW,221,0.0,1.0,50,0.00,,CLR,-99.99,VWS V12.06,2013-06-15 21:00:00,
2013-06-15 17:30:00,77.6,55.8,30.05,SW,235,1.0,1.0,47,0.00,,SCT050,-99.99,VWS V12.06,2013-06-15 21:30:00,
2013-06-15 18:00:00,77.1,61.2,30.05,SE,125,1.0,1.0,58,0.00,,CLR,-99.99,VWS V12.06,2013-06-15 22:00:00,
2013-06-15 18:30:00,75.9,62.0,30.04,SSE,163,0.0,2.0,62,0.00,,CLR,-99.99,VWS V12.06,2013-06-15 22:30:00,
2013-06-15 19:00:00,73.3,62.1,30.05,SSW,199,1.0,1.0,68,0.00,,CLR,-99.99,VWS V12.06,2013-06-15 23:00:00,
2013-06-15 19:30:00,71.0,61.5,30.06,SSW,201,0.0,0.0,72,0.00,,CLR,-99.99,VWS V12.06,2013-06-15 23:30:00,
2013-06-15 20:00:00,69.6,61.3,30.05,South,169,1.0,2.0,75,0.00,,CLR,-99.99,VWS V12.06,2013-06-16 00:00:00,
2013-06-15 20:30:00,68.9,61.4,30.05,SSE,166,0.0,0.0,77,0.00,,CLR,-99.99,VWS V12.06,2013-06-16 00:30:00,
2013-06-15 21:00:00,68.3,61.5,30.04,SSE,166,0.0,0.0,79,0.00,,CLR,-99.99,VWS V12.06,2013-06-16 01:00:00,
2013-06-15 21:30:00,67.4,61.4,30.04,SW,222,1.0,4.0,81,0.00,,CLR,-99.99,VWS V12.06,2013-06-16 01:30:00,
2013-06-15 22:00:00,66.8,60.8,30.05,East,86,2.0,2.0,81,0.00,,CLR,-99.99,VWS V12.06,2013-06-16 02:00:00,
2013-06-15 22:30:00,66.3,60.3,30.06,SW,229,0.0,0.0,81,0.00,,CLR,-99.99,VWS V12.06,2013-06-16 02:30:00,
2013-06-15 23:00:00,65.3,60.0,30.06,South,188,0.0,1.0,83,0.00,,CLR,-99.99,VWS V12.06,2013-06-16 03:00:00,
2013-06-15 23:30:00,64.8,59.5,30.07,SW,220,0.0,1.0,83,0.00,,CLR,-99.99,VWS V12.06,2013-06-16 03:30:00,